Weather History for Glencoe, MN

Change the Weather History Date:

Wednesday, January 22, 2014

  Actual Average (KHCD) Record (KHCD)
Temperature  
Mean Temperature 0 °F -  
Max Temperature 10 °F 28 °F 53 °F (1981)
Min Temperature -10 °F 6 °F -24 °F (1970)
Degree Days  
Heating Degree Days 64    
Moisture  
Dew Point -7 °F    
Average Humidity 66    
Maximum Humidity 77    
Minimum Humidity 56    
Precipitation  
Precipitation 0.00 in - - ()
Sea Level Pressure  
Sea Level Pressure 30.15 in    
Wind  
Wind Speed 13 mph (WNW)    
Max Wind Speed 22 mph    
Max Gust Speed 31 mph    
Visibility 7 miles    
Events Snow    
Averages and records for this station are not official NWS values.
T = Trace of Precipitation, MM = Missing Value Source: NWS Daily Summary

Daily Weather History Graph

Daily Weather History Graph

Search for Another Location

Airport:

Trip Planner

Search our weather history database for the weather conditions in past years. The results will help you decide how hot, cold, wet, or windy it might be!

Date:

Astronomy

Jan. 22, 2014 Rise Set
Actual Time 7:45 AM CST 5:11 PM CST
Civil Twilight 7:13 AM CST 5:43 PM CST
Nautical Twilight 6:37 AM CST 6:18 PM CST
Astronomical Twilight 6:03 AM CST 6:53 PM CST
Moon No Moon Rise 10:29 AM CST (1/22)
Length of Visible Light 10h 29m
Length of Day
9h 25m
Waning Gibbous, 65% of the Moon is Illuminated
Jan 22
Waning Gibbous
Jan 23
Last Quarter
Jan 30
New
Feb 6
First Quarter
Feb 14
Full

Hourly Weather History & Observations

Time (CST) Temp. Windchill Dew Point Humidity Pressure Visibility Wind Dir Wind Speed Gust Speed Precip Events Conditions
12:13 AM 9.1 °F 2.6 °F 3.2 °F 77% 29.95 in 7.0 mi SW 3.5 mph - N/A Snow Light Snow
12:33 AM 9.5 °F -0.3 °F 3.7 °F 77% 29.95 in 10.0 mi WSW 5.8 mph - N/A Snow Light Snow
12:52 AM 9.5 °F 1.2 °F 3.7 °F 77% 29.95 in 10.0 mi WSW 4.6 mph - N/A Snow Light Snow
1:13 AM 10.0 °F -2.9 °F 4.1 °F 77% 29.94 in 7.0 mi West 9.2 mph - N/A Snow Light Snow
1:33 AM 10.2 °F -5.0 °F 3.9 °F 76% 29.95 in 10.0 mi WNW 12.7 mph - N/A Snow Light Snow
1:53 AM 10.0 °F -5.2 °F 3.2 °F 74% 29.95 in 10.0 mi WNW 12.7 mph 19.6 mph N/A Snow Light Snow
2:13 AM 9.9 °F -6.1 °F 3.0 °F 74% 29.95 in 10.0 mi NW 13.8 mph - N/A Snow Light Snow
2:33 AM 9.5 °F -6.6 °F 2.3 °F 73% 29.95 in 10.0 mi NW 13.8 mph 18.4 mph N/A   Overcast
2:53 AM 8.2 °F -6.8 °F 0.7 °F 71% 29.96 in 10.0 mi NW 11.5 mph 15.0 mph N/A   Mostly Cloudy
3:13 AM 7.0 °F -9.1 °F -0.2 °F 72% 29.97 in 10.0 mi NW 12.7 mph 18.4 mph N/A   Clear
3:33 AM 5.7 °F -9.1 °F -1.1 °F 73% 29.97 in 10.0 mi WNW 10.4 mph - N/A   Clear
3:53 AM 5.0 °F -8.1 °F -1.7 °F 74% 29.97 in 10.0 mi NW 8.1 mph - N/A   Clear
4:13 AM 2.5 °F -11.1 °F -4.0 °F 74% 29.98 in 10.0 mi WNW 8.1 mph - N/A   Clear
4:33 AM 3.4 °F -12.0 °F -2.7 °F 76% 29.97 in 10.0 mi WNW 10.4 mph - N/A   Scattered Clouds
4:53 AM 5.4 °F -10.4 °F -1.5 °F 73% 29.97 in 10.0 mi WNW 11.5 mph - N/A   Overcast
5:12 AM 6.3 °F -10.0 °F -0.9 °F 72% 29.97 in 10.0 mi WNW 12.7 mph - N/A   Overcast
5:33 AM 6.4 °F -8.2 °F -0.8 °F 72% 29.97 in 10.0 mi West 10.4 mph - N/A   Overcast
5:52 AM 6.3 °F -6.5 °F -0.8 °F 73% 29.97 in 10.0 mi West 8.1 mph - N/A   Overcast
6:13 AM 6.4 °F -8.2 °F -0.4 °F 74% 29.97 in 10.0 mi West 10.4 mph - N/A   Overcast
6:33 AM 6.8 °F -6.9 °F 0.3 °F 75% 29.97 in 7.0 mi West 9.2 mph - N/A   Overcast
6:53 AM 7.5 °F -6.9 °F 1.0 °F 75% 29.98 in 5.0 mi West 10.4 mph - N/A Snow Light Snow
7:13 AM 8.1 °F -7.7 °F 1.6 °F 75% 29.98 in 5.0 mi WNW 12.7 mph - N/A Snow Light Snow
7:32 AM 8.6 °F -8.9 °F 2.1 °F 75% 29.99 in 5.0 mi WNW 16.1 mph - N/A   Haze
7:53 AM 8.8 °F -9.8 °F 1.6 °F 73% 29.99 in 5.0 mi WNW 18.4 mph 26.5 mph N/A   Haze
8:13 AM 8.4 °F -8.6 °F 0.9 °F 71% 30.00 in 5.0 mi WNW 15.0 mph 25.3 mph N/A   Haze
8:33 AM 7.5 °F -11.4 °F -0.6 °F 70% 30.01 in 3.0 mi NW 18.4 mph 28.8 mph N/A   Haze
8:53 AM 7.0 °F -12.1 °F -0.9 °F 70% 30.03 in 4.0 mi WNW 18.4 mph 25.3 mph N/A   Haze
9:13 AM 5.7 °F -15.3 °F -1.7 °F 72% 30.03 in 1.2 mi WNW 21.9 mph 26.5 mph N/A   Haze
9:33 AM 5.0 °F -13.0 °F -3.1 °F 69% 30.05 in 3.0 mi NW 15.0 mph 24.2 mph N/A   Haze
9:53 AM 4.8 °F -13.2 °F -4.5 °F 65% 30.06 in 10.0 mi NW 15.0 mph 21.9 mph N/A   Scattered Clouds
10:13 AM 5.0 °F -14.7 °F -5.1 °F 63% 30.07 in 3.0 mi NW 18.4 mph 26.5 mph N/A   Haze
10:33 AM 5.0 °F -15.7 °F -5.4 °F 62% 30.07 in 3.0 mi NW 20.7 mph 27.6 mph N/A   Haze
10:53 AM 4.8 °F -13.8 °F -6.2 °F 61% 30.09 in 5.0 mi NW 16.1 mph 24.2 mph N/A   Haze
11:13 AM 4.1 °F -16.4 °F -5.1 °F 66% 30.10 in 2.5 mi WNW 19.6 mph 26.5 mph N/A   Haze
11:33 AM 3.7 °F -16.9 °F -4.9 °F 67% 30.11 in 1.5 mi NW 19.6 mph 27.6 mph N/A   Haze
11:53 AM 3.2 °F -18.1 °F -5.8 °F 66% 30.11 in 1.8 mi WNW 20.7 mph 27.6 mph N/A   Haze
12:13 PM 3.2 °F -18.1 °F -5.8 °F 66% 30.11 in 4.0 mi NW 20.7 mph 27.6 mph N/A   Haze
12:33 PM 3.0 °F -18.3 °F -8.1 °F 60% 30.12 in 4.0 mi WNW 20.7 mph 26.5 mph N/A   Haze
12:53 PM 2.3 °F -19.8 °F -9.0 °F 59% 30.12 in 2.5 mi NW 21.9 mph 26.5 mph N/A   Haze
1:13 PM 2.3 °F -19.8 °F -9.6 °F 58% 30.13 in 4.0 mi NNW 21.9 mph 27.6 mph N/A   Haze
1:33 PM 2.1 °F -20.0 °F -9.8 °F 58% 30.14 in 5.0 mi NW 21.9 mph 26.5 mph N/A   Haze
1:53 PM 1.9 °F -18.7 °F -10.3 °F 57% 30.15 in 3.0 mi NW 18.4 mph 28.8 mph N/A   Haze
2:13 PM 1.4 °F -20.5 °F -10.3 °F 58% 30.16 in 3.0 mi NW 20.7 mph 28.8 mph N/A   Haze
2:33 PM 1.2 °F -19.1 °F -10.5 °F 58% 30.17 in 4.0 mi NW 17.3 mph 28.8 mph N/A   Haze
2:53 PM 1.4 °F -18.2 °F -10.1 °F 59% 30.19 in 5.0 mi NW 16.1 mph 25.3 mph N/A   Haze
3:13 PM 1.0 °F -18.7 °F -10.7 °F 58% 30.20 in 5.0 mi NW 16.1 mph 23.0 mph N/A   Haze
3:33 PM 0.5 °F -20.6 °F -11.7 °F 56% 30.22 in 5.0 mi NW 18.4 mph 31.1 mph N/A   Haze
3:53 PM 0.5 °F -18.0 °F -11.7 °F 56% 30.24 in 7.0 mi NW 13.8 mph 26.5 mph N/A   Clear
4:12 PM -0.0 °F -20.7 °F -11.6 °F 58% 30.24 in 10.0 mi WNW 17.3 mph 24.2 mph N/A   Clear
4:33 PM -1.3 °F -22.3 °F -11.6 °F 62% 30.26 in 7.0 mi NW 17.3 mph 25.3 mph N/A   Clear
4:53 PM -2.0 °F -23.3 °F -12.1 °F 62% 30.27 in 10.0 mi NW 17.3 mph 24.2 mph N/A   Clear
5:13 PM -2.6 °F -24.0 °F -13.0 °F 61% 30.28 in 7.0 mi NW 17.3 mph 25.3 mph N/A   Clear
5:33 PM -3.1 °F -25.8 °F -13.2 °F 62% 30.29 in 10.0 mi NW 19.6 mph 26.5 mph N/A   Clear
5:53 PM -3.5 °F -25.7 °F -13.5 °F 62% 30.31 in 10.0 mi NW 18.4 mph 25.3 mph N/A   Clear
6:13 PM -4.0 °F -27.6 °F -14.1 °F 62% 30.32 in 7.0 mi WNW 20.7 mph 27.6 mph N/A   Clear
6:33 PM -4.5 °F -27.7 °F -14.8 °F 61% 30.34 in 7.0 mi WNW 19.6 mph 25.3 mph N/A   Clear
6:52 PM -4.9 °F -27.0 °F -15.0 °F 62% 30.35 in 10.0 mi WNW 17.3 mph 25.3 mph N/A   Clear
7:13 PM -5.4 °F -27.7 °F -15.7 °F 61% 30.36 in 10.0 mi WNW 17.3 mph - N/A   Clear
7:32 PM -6.2 °F -28.0 °F -16.2 °F 62% 30.38 in 10.0 mi WNW 16.1 mph 26.5 mph N/A   Clear
7:53 PM -6.7 °F -30.0 °F -16.8 °F 62% 30.39 in 10.0 mi WNW 18.4 mph 24.2 mph N/A   Clear
8:13 PM -7.2 °F -31.3 °F -17.3 °F 62% 30.40 in 10.0 mi WNW 19.6 mph 25.3 mph N/A   Clear
8:33 PM -7.8 °F -30.0 °F -17.5 °F 63% 30.41 in 10.0 mi NW 16.1 mph 25.3 mph N/A   Clear
8:53 PM -8.1 °F -30.5 °F -18.0 °F 62% 30.42 in 10.0 mi NW 16.1 mph 21.9 mph N/A   Clear
9:13 PM -8.5 °F -30.2 °F -18.4 °F 62% 30.43 in 10.0 mi NW 15.0 mph - N/A   Clear
9:33 PM -8.5 °F -31.0 °F -18.4 °F 62% 30.43 in 10.0 mi NW 16.1 mph 21.9 mph N/A   Clear
9:53 PM -8.7 °F -29.7 °F -18.4 °F 62% 30.44 in 10.0 mi NW 13.8 mph - N/A   Clear
10:12 PM -8.7 °F -28.0 °F -18.8 °F 61% 30.46 in 10.0 mi NW 11.5 mph 18.4 mph N/A   Clear
10:33 PM -9.2 °F -28.7 °F -19.3 °F 61% 30.47 in 10.0 mi NW 11.5 mph - N/A   Clear
10:52 PM -9.4 °F -27.9 °F -19.3 °F 62% 30.48 in 10.0 mi WNW 10.4 mph 16.1 mph N/A   Clear
11:13 PM -9.6 °F -28.1 °F -19.5 °F 62% 30.49 in 10.0 mi NW 10.4 mph - N/A   Clear
11:33 PM -9.9 °F -28.6 °F -19.8 °F 62% 30.51 in 10.0 mi WNW 10.4 mph - N/A   Clear
11:52 PM -10.7 °F -28.4 °F -20.4 °F 62% 30.52 in 10.0 mi WNW 9.2 mph - N/A   Clear